Time,TemperatureF,DewpointF,PressureIn,WindDirection,WindDirectionDegrees,WindSpeedMPH,WindSpeedGustMPH,Humidity,HourlyPrecipIn,Conditions,Clouds,dailyrainin,SoftwareType,DateUTC
2013-09-01 17:35:00,84.5,75.3,29.76,SSE,155,1.0,1.0,74,0.00,,,0.00,Wunderground v.1.15,2013-09-01 22:35:00,
2013-09-01 17:40:00,84.3,75.5,29.76,SSE,155,1.0,1.0,75,0.00,,,0.00,Wunderground v.1.15,2013-09-01 22:40:00,
2013-09-01 17:45:00,84.1,75.3,29.76,SSE,154,1.0,1.0,75,0.00,,,0.00,Wunderground v.1.15,2013-09-01 22:45:00,
2013-09-01 17:50:00,84.0,75.2,29.76,SSE,154,1.0,1.0,75,0.00,,,0.00,Wunderground v.1.15,2013-09-01 22:50:00,
2013-09-01 18:00:00,83.8,75.4,29.76,SSE,153,1.0,1.0,76,0.00,,,0.00,Wunderground v.1.15,2013-09-01 23:00:00,
2013-09-01 18:05:00,83.7,75.3,29.76,SSE,154,1.0,6.0,76,0.00,,,0.00,Wunderground v.1.15,2013-09-01 23:05:00,
2013-09-01 18:10:00,83.6,75.2,29.76,SSE,153,0.0,6.0,76,0.00,,,0.00,Wunderground v.1.15,2013-09-01 23:10:00,
2013-09-01 18:15:00,83.6,75.6,29.75,SSE,153,0.0,6.0,77,0.00,,,0.00,Wunderground v.1.15,2013-09-01 23:15:00,
2013-09-01 18:20:00,83.6,75.6,29.75,SSE,154,0.0,6.0,77,0.00,,,0.00,Wunderground v.1.15,2013-09-01 23:20:00,
2013-09-01 18:25:00,83.5,75.1,29.75,SSE,153,0.0,6.0,76,0.00,,,0.00,Wunderground v.1.15,2013-09-01 23:25:00,
2013-09-01 18:30:00,83.4,75.0,29.75,SSE,153,0.0,6.0,76,0.00,,,0.00,Wunderground v.1.15,2013-09-01 23:30:00,
2013-09-01 18:35:00,83.3,75.3,29.75,WSW,245,1.0,6.0,77,0.00,,,0.00,Wunderground v.1.15,2013-09-01 23:35:00,
2013-09-01 18:40:00,83.3,75.7,29.75,WSW,245,1.0,1.0,78,0.00,,,0.00,Wunderground v.1.15,2013-09-01 23:40:00,
2013-09-01 18:45:00,83.2,75.2,29.76,WSW,245,0.0,6.0,77,0.00,,,0.00,Wunderground v.1.15,2013-09-01 23:45:00,
2013-09-01 18:50:00,83.0,75.0,29.76,WSW,245,0.0,6.0,77,0.00,,,0.00,Wunderground v.1.15,2013-09-01 23:50:00,
2013-09-01 18:55:00,82.9,75.3,29.76,WSW,245,0.0,6.0,78,0.00,,,0.00,Wunderground v.1.15,2013-09-01 23:55:00,
2013-09-01 19:05:00,82.6,75.0,29.75,WSW,245,0.0,6.0,78,0.00,,,0.00,Wunderground v.1.15,2013-09-02 00:05:00,
2013-09-01 19:10:00,82.5,74.6,29.75,WSW,245,0.0,6.0,77,0.00,,,0.00,Wunderground v.1.15,2013-09-02 00:10:00,
2013-09-01 19:15:00,82.3,75.1,29.75,WSW,245,0.0,6.0,79,0.00,,,0.00,Wunderground v.1.15,2013-09-02 00:15:00,
2013-09-01 19:20:00,82.1,74.6,29.75,WSW,245,0.0,6.0,78,0.00,,,0.00,Wunderground v.1.15,2013-09-02 00:20:00,
2013-09-01 19:25:00,81.9,75.1,29.75,WSW,245,0.0,6.0,80,0.00,,,0.00,Wunderground v.1.15,2013-09-02 00:25:00,
2013-09-01 19:30:00,81.4,74.6,29.76,WSW,245,0.0,6.0,80,0.00,,,0.00,Wunderground v.1.15,2013-09-02 00:30:00,
2013-09-01 19:35:00,81.1,74.7,29.76,WSW,245,0.0,6.0,81,0.00,,,0.00,Wunderground v.1.15,2013-09-02 00:35:00,
2013-09-01 19:40:00,80.8,74.4,29.76,WSW,245,0.0,6.0,81,0.00,,,0.00,Wunderground v.1.15,2013-09-02 00:40:00,
2013-09-01 19:45:00,80.4,74.4,29.75,WSW,245,0.0,6.0,82,0.00,,,0.00,Wunderground v.1.15,2013-09-02 00:45:00,
2013-09-01 19:50:00,80.0,74.4,29.75,WSW,245,0.0,6.0,83,0.00,,,0.00,Wunderground v.1.15,2013-09-02 00:50:00,
2013-09-01 19:55:00,79.6,74.0,29.75,WSW,245,0.0,6.0,83,0.00,,,0.00,Wunderground v.1.15,2013-09-02 00:55:00,
2013-09-01 20:00:00,79.3,74.0,29.76,WSW,245,0.0,6.0,84,0.00,,,0.00,Wunderground v.1.15,2013-09-02 01:00:00,
2013-09-01 20:05:00,78.9,74.0,29.76,WSW,245,0.0,6.0,85,0.00,,,0.00,Wunderground v.1.15,2013-09-02 01:05:00,
2013-09-01 20:10:00,78.6,73.7,29.76,WSW,245,0.0,6.0,85,0.00,,,0.00,Wunderground v.1.15,2013-09-02 01:10:00,
2013-09-01 20:15:00,78.3,73.8,29.76,WSW,245,0.0,6.0,86,0.00,,,0.00,Wunderground v.1.15,2013-09-02 01:15:00,
2013-09-01 20:20:00,78.0,73.5,29.76,WSW,245,0.0,6.0,86,0.00,,,0.00,Wunderground v.1.15,2013-09-02 01:20:00,
2013-09-01 20:25:00,77.7,73.5,29.76,WSW,245,0.0,6.0,87,0.00,,,0.00,Wunderground v.1.15,2013-09-02 01:25:00,
2013-09-01 20:30:00,77.5,73.3,29.78,WSW,245,0.0,6.0,87,0.00,,,0.00,Wunderground v.1.15,2013-09-02 01:30:00,
2013-09-01 20:35:00,77.4,73.2,29.78,WSW,245,0.0,6.0,87,0.00,,,0.00,Wunderground v.1.15,2013-09-02 01:35:00,
2013-09-01 20:40:00,77.3,73.1,29.78,WSW,245,0.0,6.0,87,0.00,,,0.00,Wunderground v.1.15,2013-09-02 01:40:00,
2013-09-01 20:45:00,77.2,73.4,29.78,WSW,245,0.0,6.0,88,0.00,,,0.00,Wunderground v.1.15,2013-09-02 01:45:00,
2013-09-01 20:50:00,77.1,72.9,29.78,WSW,245,0.0,6.0,87,0.00,,,0.00,Wunderground v.1.15,2013-09-02 01:50:00,
2013-09-01 20:55:00,77.0,73.2,29.78,WSW,245,0.0,6.0,88,0.00,,,0.00,Wunderground v.1.15,2013-09-02 01:55:00,
2013-09-01 21:00:00,76.9,73.1,29.78,WSW,245,0.0,6.0,88,0.00,,,0.00,Wunderground v.1.15,2013-09-02 02:00:00,
2013-09-01 21:05:00,76.7,73.2,29.78,WSW,245,0.0,6.0,89,0.00,,,0.00,Wunderground v.1.15,2013-09-02 02:05:00,
2013-09-01 21:10:00,76.6,73.1,29.78,WSW,245,0.0,6.0,89,0.00,,,0.00,Wunderground v.1.15,2013-09-02 02:10:00,
2013-09-01 21:15:00,76.5,73.0,29.79,WSW,245,0.0,6.0,89,0.00,,,0.00,Wunderground v.1.15,2013-09-02 02:15:00,
2013-09-01 21:20:00,76.4,73.2,29.79,WSW,245,0.0,6.0,90,0.00,,,0.00,Wunderground v.1.15,2013-09-02 02:20:00,
2013-09-01 21:25:00,76.3,73.1,29.79,WSW,245,0.0,6.0,90,0.00,,,0.00,Wunderground v.1.15,2013-09-02 02:25:00,
2013-09-01 21:30:00,76.2,73.1,29.80,WSW,245,0.0,6.0,90,0.00,,,0.00,Wunderground v.1.15,2013-09-02 02:30:00,
2013-09-01 21:35:00,76.1,73.0,29.80,WSW,245,0.0,6.0,90,0.00,,,0.00,Wunderground v.1.15,2013-09-02 02:35:00,
2013-09-01 21:40:00,76.0,72.9,29.80,WSW,245,0.0,6.0,90,0.00,,,0.00,Wunderground v.1.15,2013-09-02 02:40:00,
2013-09-01 21:45:00,75.8,72.7,29.80,WSW,245,0.0,6.0,90,0.00,,,0.00,Wunderground v.1.15,2013-09-02 02:45:00,
2013-09-01 21:50:00,75.7,72.6,29.80,WSW,245,0.0,6.0,90,0.00,,,0.00,Wunderground v.1.15,2013-09-02 02:50:00,
2013-09-01 21:55:00,75.6,72.5,29.80,WSW,245,0.0,6.0,90,0.00,,,0.00,Wunderground v.1.15,2013-09-02 02:55:00,
2013-09-01 22:00:00,75.5,72.4,29.80,WSW,245,0.0,6.0,90,0.00,,,0.00,Wunderground v.1.15,2013-09-02 03:00:00,
2013-09-01 22:05:00,75.4,72.3,29.80,WSW,245,0.0,6.0,90,0.00,,,0.00,Wunderground v.1.15,2013-09-02 03:05:00,
2013-09-01 22:10:00,75.3,72.5,29.80,WSW,245,0.0,6.0,91,0.00,,,0.00,Wunderground v.1.15,2013-09-02 03:10:00,
2013-09-01 22:15:00,75.2,72.4,29.81,WSW,245,0.0,6.0,91,0.00,,,0.00,Wunderground v.1.15,2013-09-02 03:15:00,
2013-09-01 22:20:00,75.3,72.5,29.81,WSW,245,0.0,6.0,91,0.00,,,0.00,Wunderground v.1.15,2013-09-02 03:20:00,
2013-09-01 22:25:00,75.3,72.5,29.81,WSW,245,0.0,6.0,91,0.00,,,0.00,Wunderground v.1.15,2013-09-02 03:25:00,
2013-09-01 22:30:00,75.3,72.5,29.81,WSW,245,0.0,6.0,91,0.00,,,0.00,Wunderground v.1.15,2013-09-02 03:30:00,
2013-09-01 22:35:00,75.4,72.9,29.81,WSW,245,0.0,6.0,92,0.00,,,0.00,Wunderground v.1.15,2013-09-02 03:35:00,
2013-09-01 22:40:00,75.5,73.0,29.81,WSW,244,0.0,6.0,92,0.00,,,0.00,Wunderground v.1.15,2013-09-02 03:40:00,
2013-09-01 22:45:00,75.5,73.0,29.81,WSW,244,0.0,6.0,92,0.00,,,0.00,Wunderground v.1.15,2013-09-02 03:45:00,
2013-09-01 22:50:00,75.5,72.7,29.81,WSW,244,0.0,6.0,91,0.00,,,0.00,Wunderground v.1.15,2013-09-02 03:50:00,
2013-09-01 22:55:00,75.5,73.0,29.81,WSW,244,0.0,6.0,92,0.00,,,0.00,Wunderground v.1.15,2013-09-02 03:55:00,
2013-09-01 23:00:00,75.5,73.0,29.80,WSW,244,0.0,6.0,92,0.00,,,0.00,Wunderground v.1.15,2013-09-02 04:00:00,
2013-09-01 23:05:00,75.6,73.1,29.80,WSW,244,0.0,6.0,92,0.00,,,0.00,Wunderground v.1.15,2013-09-02 04:05:00,
2013-09-01 23:10:00,75.5,73.0,29.80,WSW,244,0.0,6.0,92,0.00,,,0.00,Wunderground v.1.15,2013-09-02 04:10:00,
2013-09-01 23:15:00,75.5,73.0,29.80,WSW,244,0.0,6.0,92,0.00,,,0.00,Wunderground v.1.15,2013-09-02 04:15:00,
2013-09-01 23:20:00,75.4,72.9,29.80,WSW,244,0.0,6.0,92,0.00,,,0.00,Wunderground v.1.15,2013-09-02 04:20:00,
2013-09-01 23:25:00,75.4,72.9,29.80,WSW,244,0.0,6.0,92,0.00,,,0.00,Wunderground v.1.15,2013-09-02 04:25:00,
2013-09-01 23:35:00,75.3,72.8,29.80,WSW,244,0.0,6.0,92,0.00,,,0.00,Wunderground v.1.15,2013-09-02 04:35:00,
2013-09-01 23:40:00,75.2,72.7,29.80,WSW,244,0.0,6.0,92,0.00,,,0.00,Wunderground v.1.15,2013-09-02 04:40:00,
2013-09-01 23:45:00,75.1,72.6,29.81,WSW,244,0.0,6.0,92,0.00,,,0.00,Wunderground v.1.15,2013-09-02 04:45:00,
2013-09-01 23:50:00,75.1,72.6,29.81,WSW,244,0.0,6.0,92,0.00,,,0.00,Wunderground v.1.15,2013-09-02 04:50:00,
2013-09-01 23:55:00,75.0,72.5,29.81,WSW,244,0.0,6.0,92,0.00,,,0.00,Wunderground v.1.15,2013-09-02 04:55:00,